Aérodrome :
LOGIN :

S'inscrire | Disclaimer

   EN    FR    IT 

 










Légende :    VFR   VFR Marginal   IFR   IFR Intensif   IFR Très Intensif
Visi : 
Plafond : 
>= 8 km
>= 3000ft
5 à 8 km
1000 à 3000 ft
1500m à 5 km
500 à 1000 ft
800 à 1500m
200 à 500 ft
< 800m
< 200 ft
Symboles :   Orages  Brouillard  Fortes neiges  Fortes précipitations  Vent > 20 kt
SIGMETs :   Divers  Orages  Givrage  Turbulence  Onde Orograph.  Cendres Volcan.






- Altitude de l'aérodrome : 13 ft
- Code IATA : GOA


LIMJ - Genoa Cristoforo Colombo

DERNIER METAR :
  • 180120Z 03016KT CAVOK 06/M02 Q1019

METARs EXPIRÉS :
  • 180050Z VRB06KT CAVOK 09/M04 Q1019
  • 180020Z 36007KT 290V100 CAVOK 10/M03 Q1018
  • 172350Z VRB08KT CAVOK 10/02 Q1018
  • 172320Z 33003KT 270V030 CAVOK 06/M00 Q1018
  • 172250Z 08006KT CAVOK 06/M00 Q1018

TAF TAF LIMJ
Valide du 18 à 00h jusqu'au 19 à 00h UTC


172300Z 1800/1824 05010KT 9999 FEW040



MET'MAP, la Météo Aéronautique d'un coup d'oeil ! - Copyright ORBIFLY Décembre 2007 - Disclaimer

ORBIFLY MET'MAP TEAM :

Programmation & Développement : Alexandra Zaïnal
Sur une idée originale de : Baudouin d'Aumeries
Assistance à la programmation : Marc-Olivier Méhu
Soutien technique & logistique : Manuel Goepfert

Contact : metmap@orbifly.com




SOURCES & CREDITS :

   NOAA